SCP
0 0 0 0 0 0 0 0 1 2 5 8 9 8 7 7 7 6 5 4 4 6 9 11 11 11 11 11 11 11 10 9 8 7 7 6 6 5 4 3 3 3 3 3
0 0 0 0 0 0 0 0 1 3 6 9 8 7 7 7 6 6 5 4 4 6 8 10 11 11 11 12 12 12 10 9 7 7 6 6 5 4 4 4 3 3 3 3
0 0 0 0 0 0 0 0 1 4 8 10 9 8 8 7 6 5 5 5 5 7 9 10 11 12 12 13 13 13 11 9 7 6 6 5 4 4 4 4 4 4 3 3
0 0 0 0 0 0 1 2 4 6 10 11 11 11 10 8 7 6 6 7 8 9 10 11 12 12 13 14 14 13 11 9 7 7 6 6 5 5 5 5 5 5 4 4
1 0 0 1 1 1 3 6 7 8 10 12 12 12 11 10 9 8 8 9 10 11 12 13 13 14 15 15 15 14 12 10 8 8 8 8 8 8 7 6 5 5 5 5
1 1 1 1 1 2 4 6 7 8 9 10 10 9 9 9 9 9 10 11 12 13 14 15 15 16 16 16 16 14 12 10 9 9 10 10 11 11 10 8 7 6 6 6
1 1 1 1 2 2 4 6 7 7 8 9 9 8 8 8 8 10 12 13 14 15 16 17 18 18 17 17 16 14 12 10 10 11 11 12 12 12 11 10 8 7 6 6
2 2 3 4 4 4 5 7 8 8 9 9 9 8 8 8 8 10 12 14 15 16 17 18 19 19 18 17 15 13 11 11 12 12 11 11 12 12 11 9 8 7 6 6
3 4 6 8 7 7 7 7 8 9 9 8 8 8 9 9 10 11 13 14 15 16 17 17 17 17 17 15 14 13 13 12 11 10 9 9 9 10 10 9 8 8 7 6
5 6 8 9 9 8 7 7 8 8 8 8 8 9 10 12 13 14 15 15 15 15 15 15 15 15 15 15 14 14 14 12 10 8 7 6 7 7 8 8 8 7 6 5
8 9 10 9 8 7 7 8 8 8 8 8 9 11 12 14 16 16 16 15 15 13 12 13 15 16 17 16 15 14 12 9 7 6 5 5 5 5 5 5 5 4 4 3
10 10 10 9 8 7 8 9 9 9 9 10 11 13 14 15 16 15 14 14 12 11 11 14 17 19 19 18 15 12 9 7 5 4 4 4 4 4 4 3 2 1 1 1
11 10 9 9 9 10 10 11 11 11 12 13 14 14 15 15 14 12 10 10 10 10 12 15 17 18 18 16 13 10 7 6 5 4 4 4 4 4 4 3 2 1 1 1
12 10 9 10 11 12 12 13 12 12 13 14 14 14 13 12 10 8 6 6 7 8 9 11 11 12 12 12 10 8 6 5 4 3 3 3 4 3 3 2 2 1 1 1
11 10 9 10 10 11 12 12 12 12 12 13 12 12 11 9 7 5 4 4 4 4 5 5 5 6 7 8 8 6 5 4 3 3 3 3 3 3 2 2 2 1 1 1
8 8 8 8 8 7 8 10 11 12 12 11 11 10 8 7 5 4 4 4 4 3 3 3 3 4 5 6 7 5 4 3 2 3 3 2 2 2 2 2 2 1 1 1
6 7 7 7 6 5 5 7 9 11 11 11 9 8 7 6 5 4 4 4 4 3 3 3 3 3 3 4 5 4 2 2 2 2 2 2 2 2 2 1 1 1 1 1
5 6 7 7 5 5 5 5 7 9 11 11 9 8 7 6 6 5 5 4 3 2 2 2 2 2 2 2 2 2 1 1 1 2 2 3 2 2 1 1 1 1 1 0
3 4 5 5 5 4 5 5 7 9 11 11 10 9 8 7 6 6 5 4 2 1 1 1 1 1 1 1 1 1 1 1 1 2 3 3 2 1 1 1 1 0 0 0
3 3 3 3 4 4 4 4 6 8 10 11 11 9 8 8 7 6 4 3 1 1 1 1 1 1 1 1 0 1 1 1 1 1 2 2 2 1 1 1 0 0 0 0
3 3 3 2 2 2 3 3 4 6 9 10 10 9 8 7 6 4 2 1 1 1 1 0 0 0 0 0 0 0 1 1 1 1 1 1 1 1 1 0 0 0 0 0
4 4 3 2 2 2 2 3 4 6 8 8 8 6 6 4 3 2 1 1 1 1 0 0 0 0 0 0 0 0 0 1 1 1 1 1 1 0 0 0 0 0 0 0
4 4 3 3 3 3 4 5 5 6 6 6 5 4 3 2 1 1 1 1 1 0 0 0 0 0 0 0 0 0 0 1 1 1 1 1 1 0 0 0 0 0 0 0
3 3 3 4 4 5 6 6 6 6 5 4 3 3 2 1 1 1 1 0 0 0 0 0 0 0 0 0 0 0 0 1 1 1 1 1 1 1 0 0 0 0 0 0
3 3 4 4 5 5 6 6 6 5 3 2 2 1 1 1 1 1 1 0 0 0 0 0 0 0 0 0 0 0 0 0 0 1 1 1 2 1 1 1 0 0 0 0
4 4 5 5 4 4 4 4 4 3 2 1 1 1 1 1 1 1 1 0 0 0 0 0 0 0 0 0 0 0 0 0 0 0 1 1 2 2 1 1 0 0 0 0
4 4 5 4 4 4 3 3 3 2 1 1 1 1 1 1 1 1 1 0 0 0 0 0 0 0 0 0 0 0 0 0 0 0 0 0 1 1 1 1 0 0 0 0
Wind_Speed
15 14 12 13 15 15 13 11 8 4 6 9 8 9 9 9 8 8 8 7 7 6 6 5 5 4 4 4 4 4 4 3 3 3 2 2 2 2 1 1 1 2 2 2
15 17 15 13 13 14 13 11 10 6 2 7 9 9 9 8 7 7 7 7 6 7 7 5 4 4 4 4 4 3 3 3 3 2 2 2 2 2 2 2 2 2 2 3
13 15 16 14 12 12 11 10 8 5 4 9 9 8 9 8 7 6 5 5 5 6 6 6 5 4 4 3 4 3 2 2 2 2 2 2 2 2 2 2 2 2 2 2
11 12 16 11 10 10 10 8 6 4 5 8 10 10 8 6 6 6 5 5 4 5 6 6 5 5 4 4 3 3 2 2 2 1 1 2 2 2 1 2 2 2 1 2
10 13 13 10 9 9 8 6 5 5 6 9 11 11 8 6 7 6 6 5 4 5 5 5 5 5 5 4 4 3 2 2 1 1 1 2 2 1 1 2 2 2 2 3
10 12 12 10 8 6 6 7 5 5 6 6 8 5 6 8 8 8 6 5 5 6 6 6 5 5 5 4 4 3 2 1 1 2 1 1 1 1 1 1 1 2 3 3
13 12 8 5 7 7 7 4 6 7 7 6 6 6 9 10 9 8 7 6 6 6 5 5 5 5 4 4 3 2 2 2 2 2 1 1 1 1 2 2 2 2 3 3
12 13 7 2 4 3 4 6 8 9 9 11 13 12 11 10 8 8 7 7 7 6 6 5 5 5 4 3 3 2 2 2 2 2 1 1 2 1 2 2 2 2 2 2
4 3 3 5 5 7 8 9 9 10 12 12 13 11 11 9 8 8 7 7 6 7 6 5 5 5 4 3 3 3 2 2 2 2 2 2 1 1 1 2 2 2 2 1
2 3 4 5 7 7 9 9 9 10 10 11 12 11 10 8 7 7 7 6 6 6 6 5 5 5 4 4 3 3 2 2 2 2 2 2 2 1 1 1 0 1 1 1
2 5 5 6 6 7 8 10 11 10 10 10 11 10 9 7 7 6 6 5 5 5 5 5 5 4 4 3 2 2 2 1 1 2 3 2 3 4 3 3 2 1 1 1
4 4 4 5 6 8 9 9 10 10 10 10 9 9 8 7 6 6 5 5 5 5 5 4 4 4 3 3 2 1 1 1 1 1 2 2 3 4 8 6 7 8 6 4
4 6 7 7 7 9 9 10 10 10 10 10 9 8 8 7 6 5 5 5 4 4 4 4 3 3 3 3 2 1 1 0 0 1 1 1 2 2 2 4 7 8 7 7
6 7 7 7 8 9 10 9 9 10 10 9 8 8 7 6 6 5 4 4 4 4 4 4 4 3 2 2 1 1 0 1 0 1 1 1 1 1 2 2 2 2 3 4
5 6 8 9 9 10 9 8 8 9 9 8 8 7 7 6 5 4 4 3 3 3 3 3 3 3 2 2 1 1 1 1 1 1 1 1 1 1 1 2 3 3 3 3
3 6 9 8 8 8 9 8 8 8 8 7 7 6 6 5 4 3 3 3 3 3 3 3 2 2 1 1 1 0 0 0 1 1 1 1 1 1 1 2 2 3 3 2
5 6 7 7 7 7 7 7 7 7 7 7 6 5 5 4 4 3 3 3 3 3 3 2 2 2 1 1 1 1 0 1 2 1 0 1 1 1 1 2 2 2 2 3
4 5 6 6 6 7 7 7 7 7 6 6 5 4 4 4 3 2 2 2 2 3 3 3 3 2 1 1 1 1 1 1 1 1 1 1 1 1 2 1 1 2 3 3
5 5 6 6 6 6 6 6 6 6 5 5 5 4 4 3 3 2 1 2 2 2 2 3 2 1 1 1 2 1 1 1 1 1 1 1 1 1 2 1 1 2 2 3
5 5 6 6 6 6 5 6 6 5 5 4 4 4 3 3 3 2 2 2 2 2 1 1 1 2 1 1 3 2 1 0 1 1 1 1 1 1 2 2 2 2 2 2
5 5 5 6 5 5 4 5 4 4 4 4 3 3 3 3 2 2 2 2 2 2 1 0 1 1 1 3 4 2 0 1 1 1 1 1 1 2 2 2 2 2 2 2
4 4 4 5 5 4 3 3 4 4 4 3 3 3 3 3 2 2 2 2 2 2 0 0 1 3 4 4 2 1 1 1 2 2 2 2 2 2 1 1 2 2 2 2
3 3 4 4 4 4 3 3 4 4 3 3 3 3 2 2 1 1 2 2 2 1 1 1 3 3 4 3 2 1 2 2 2 2 2 1 1 1 1 1 2 2 2 1
4 4 3 3 4 4 4 3 3 3 3 3 3 3 3 2 2 2 3 4 3 1 1 3 2 1 2 2 1 1 2 2 2 2 2 2 2 2 2 2 2 2 2 2
3 3 3 3 3 3 4 4 4 4 3 3 3 3 2 2 2 2 3 4 4 2 2 3 2 2 2 1 1 1 2 2 2 2 2 2 2 2 2 2 2 2 2 2
3 2 2 2 2 2 3 3 3 3 3 3 2 2 2 2 2 3 3 4 4 2 2 2 2 2 1 1 1 1 2 2 1 1 1 1 2 2 2 2 3 2 2 3
3 3 2 2 2 2 2 2 2 2 3 3 3 2 2 2 2 3 3 3 3 2 2 2 2 1 1 1 1 1 1 1 1 1 1 1 1 2 2 2 2 2 2 3
Wind_Direction
263 268 248 222 222 226 231 248 259 219 170 156 147 133 127 128 128 130 135 138 135 131 125 124 124 126 121 121 117 121 125 129 138 137 129 128 110 91 74 64 76 68 57 46
254 259 263 246 223 222 227 236 243 241 172 131 133 127 128 129 133 134 141 143 143 141 138 140 137 134 131 135 126 124 131 132 126 132 134 124 109 104 95 79 70 74 67 63
251 247 253 246 230 223 224 230 237 230 167 131 130 124 127 132 133 133 136 135 140 143 143 142 140 134 143 143 141 141 131 125 130 135 131 130 132 120 113 104 94 80 74 79
252 248 242 244 242 234 227 224 212 183 135 116 116 108 102 110 119 122 122 121 120 129 132 133 135 141 140 134 130 134 135 133 131 137 131 112 111 117 124 120 114 101 98 96
245 243 238 243 238 229 220 209 195 168 143 126 120 114 108 104 103 104 108 114 121 127 122 122 127 132 130 126 125 121 120 127 135 140 121 119 129 140 142 134 125 111 99 99
241 247 240 232 228 232 215 198 168 150 139 134 137 150 127 115 106 100 91 92 106 114 112 110 110 114 120 125 125 126 122 116 111 104 106 125 123 125 127 132 116 106 98 93
239 246 253 250 217 207 221 183 132 128 128 130 107 93 108 106 101 100 96 91 89 98 102 106 111 114 115 112 109 108 109 106 105 100 102 117 106 112 131 130 115 106 102 92
232 242 235 255 231 196 114 99 108 114 111 104 102 106 106 102 99 99 96 90 88 87 88 91 104 109 106 91 75 72 79 83 78 80 81 96 108 124 138 136 137 129 120 109
219 217 61 58 77 98 108 107 106 108 109 112 115 113 110 110 106 99 95 90 90 92 88 84 86 94 96 82 73 75 77 80 84 79 66 65 77 94 136 156 159 147 157 158
154 124 107 104 100 95 105 112 110 107 113 115 114 112 110 106 101 97 92 89 89 89 87 82 76 79 82 77 73 83 90 96 99 96 82 70 51 39 42 34 64 120 135 133
131 119 104 85 93 107 109 107 107 111 111 110 113 115 114 109 103 96 94 88 86 85 85 84 81 78 82 80 84 91 99 97 112 114 110 92 61 34 39 42 24 20 33 50
152 133 113 110 103 108 112 112 112 111 106 106 109 113 111 108 102 99 96 92 92 88 84 85 84 81 73 74 82 86 100 78 87 119 110 111 111 82 50 59 57 57 57 64
100 121 117 115 109 105 105 103 103 104 104 101 100 104 103 102 98 96 94 89 89 90 90 93 90 83 73 72 77 70 57 67 54 87 97 116 136 136 120 80 64 56 57 66
92 109 116 111 111 107 104 103 102 100 97 95 95 97 98 97 95 92 87 85 86 85 84 81 78 74 65 67 72 40 341 65 37 90 98 110 130 147 143 142 125 98 66 75
95 118 121 113 107 110 111 111 109 104 99 97 100 100 99 97 94 90 88 88 92 90 78 71 66 62 58 58 57 31 10 24 38 80 128 140 150 148 137 132 122 115 111 98
107 119 121 123 131 129 125 121 113 108 105 103 98 95 98 100 95 87 90 90 89 83 77 68 60 45 30 36 33 34 66 26 281 241 161 133 121 114 104 105 105 113 117 113
138 134 135 138 132 124 116 112 111 108 104 100 98 98 105 106 105 94 83 74 72 75 73 69 54 31 1 354 319 293 184 182 232 251 52 66 93 94 96 99 108 120 116 126
127 131 141 136 129 122 115 110 107 106 105 104 105 101 98 100 98 93 81 90 93 85 69 61 50 9 348 5 322 296 248 219 170 95 80 75 82 109 107 109 120 117 117 131
102 115 121 117 114 111 111 110 107 106 110 112 109 103 102 102 97 105 119 107 97 90 67 50 11 307 315 14 332 275 228 190 131 112 119 136 185 121 106 108 110 114 110 120
107 104 103 105 104 104 106 106 108 109 108 108 109 111 111 103 101 111 110 93 70 54 53 46 291 293 304 342 309 284 275 176 120 120 124 126 108 84 76 73 72 78 86 102
118 117 113 109 102 103 107 110 111 110 108 111 117 125 124 124 126 114 126 112 83 54 28 279 274 345 5 350 297 286 34 68 79 79 87 85 79 79 73 72 80 84 89 94
107 115 123 122 123 118 108 110 114 115 115 121 128 131 136 140 134 122 116 108 113 83 295 160 76 52 16 336 298 334 59 76 81 77 70 67 71 73 73 78 85 91 94 98
95 99 104 111 115 116 114 114 116 119 125 136 147 150 149 145 161 157 131 109 115 104 295 72 76 54 360 320 321 21 54 62 72 79 82 90 101 99 90 87 80 79 77 69
106 102 106 115 123 132 134 131 127 131 142 152 154 148 158 165 154 133 118 126 118 141 103 96 106 37 311 295 321 61 64 55 59 68 67 60 62 67 58 58 63 60 55 53
116 121 125 129 141 144 146 151 152 159 163 146 140 142 156 152 138 129 128 133 138 165 151 149 179 256 277 313 333 80 85 68 60 53 72 75 64 61 56 55 49 45 47 56
140 143 132 157 147 169 176 172 167 163 158 145 142 145 139 127 125 127 139 148 146 159 158 148 171 217 250 329 34 66 88 114 111 85 62 71 60 59 57 49 52 51 48 45
160 154 161 174 175 179 170 161 152 149 146 141 144 144 137 138 139 141 142 145 150 159 154 158 165 177 184 145 99 97 104 84 66 50 57 67 78 82 82 72 61 59 55 54